When you browse on this site, cookies collect data to enhance your experience and personalize the content and advertising you see.
Visit our Privacy Policy to learn more. By continuing to use the site, you agree to this use of cookies and data.
  • In Hungary
  • List of Countries
  • For 7 days
  • Water Temperature
  • Weather Map
  • News
  • Weather Widgets
  • user-avatar
    Login

    Hourly Weather Oud-Beijerland

    Today, 21 August, Wednesday

    Time Temperature Precipitation Wind Pressure Humidity
    00:00 +14°C° 0 mm 2 mps 769 mmHg 75%
    01:00 +14°C° 0 mm 2 mps 770 mmHg 77%
    02:00 +14°C° 0 mm 2 mps 770 mmHg 80%
    03:00 +13°C° 0 mm 2 mps 770 mmHg 83%
    04:00 +14°C° 0 mm 2 mps 770 mmHg 83%
    05:00 +13°C° 0 mm 3 mps 770 mmHg 83%
    06:00 +13°C° 0 mm 3 mps 770 mmHg 83%
    07:00 +16°C° 0 mm 3 mps 770 mmHg 75%
    08:00 +18°C° 0 mm 3 mps 770 mmHg 67%
    09:00 +20°C° 0 mm 3 mps 771 mmHg 59%
    10:00 +21°C° 0 mm 3 mps 770 mmHg 55%
    11:00 +21°C° 0 mm 3 mps 770 mmHg 50%
    12:00 +23°C° 0 mm 2 mps 770 mmHg 46%
    13:00 +23°C° 0 mm 2 mps 770 mmHg 46%
    14:00 +23°C° 0 mm 2 mps 770 mmHg 46%
    15:00 +23°C° 0 mm 2 mps 769 mmHg 46%
    16:00 +23°C° 0 mm 1 mps 769 mmHg 50%
    17:00 +22°C° 0 mm 1 mps 769 mmHg 54%
    18:00 +21°C° 0 mm 1 mps 769 mmHg 58%
    19:00 +20°C° 0 mm 1 mps 769 mmHg 61%
    20:00 +18°C° 0 mm 1 mps 769 mmHg 64%
    21:00 +16°C° 0 mm 1 mps 769 mmHg 67%
    22:00 +16°C° 0 mm 1 mps 769 mmHg 67%
    23:00 +15°C° 0 mm 2 mps 769 mmHg 67%

    Tomorrow, 22 August, Thursday

    Time Temperature Precipitation Wind Pressure Humidity
    00:00 +15°C° 0 mm 2 mps 768 mmHg 68%
    01:00 +15°C° 0 mm 2 mps 768 mmHg 68%
    02:00 +14°C° 0 mm 2 mps 768 mmHg 68%
    03:00 +14°C° 0 mm 2 mps 768 mmHg 69%
    04:00 +14°C° 0 mm 2 mps 768 mmHg 70%
    05:00 +15°C° 0 mm 2 mps 768 mmHg 71%
    06:00 +15°C° 0 mm 2 mps 768 mmHg 72%
    07:00 +17°C° 0 mm 3 mps 768 mmHg 68%
    08:00 +19°C° 0 mm 3 mps 768 mmHg 64%
    09:00 +21°C° 0 mm 3 mps 768 mmHg 59%
    10:00 +21°C° 0 mm 3 mps 768 mmHg 57%
    11:00 +22°C° 0 mm 4 mps 768 mmHg 54%
    12:00 +23°C° 0 mm 4 mps 768 mmHg 51%
    13:00 +23°C° 0 mm 4 mps 768 mmHg 51%
    14:00 +23°C° 0 mm 4 mps 768 mmHg 50%
    15:00 +22°C° 0 mm 4 mps 768 mmHg 49%
    16:00 +21°C° 0 mm 3 mps 768 mmHg 51%
    17:00 +20°C° 0 mm 2 mps 768 mmHg 53%
    18:00 +19°C° 0 mm 2 mps 768 mmHg 55%
    19:00 +19°C° 0 mm 1 mps 768 mmHg 56%
    20:00 +18°C° 0 mm 1 mps 768 mmHg 58%
    21:00 +16°C° 0 mm 1 mps 769 mmHg 59%
    22:00 +15°C° 0 mm 1 mps 769 mmHg 60%
    23:00 +15°C° 0 mm 1 mps 768 mmHg 61%

    Day after tomorrow, 23 August, Friday

    Time Temperature Precipitation Wind Pressure Humidity
    00:00 +15°C° 0 mm 1 mps 768 mmHg 62%
    01:00 +14°C° 0 mm 1 mps 768 mmHg 63%
    02:00 +14°C° 0 mm 1 mps 768 mmHg 64%
    03:00 +14°C° 0 mm 1 mps 768 mmHg 64%
    04:00 +14°C° 0 mm 1 mps 768 mmHg 64%
    05:00 +15°C° 0 mm 1 mps 768 mmHg 64%
    06:00 +15°C° 0 mm 1 mps 768 mmHg 65%
    07:00 +18°C° 0 mm 1 mps 768 mmHg 59%
    08:00 +20°C° 0 mm 1 mps 768 mmHg 54%
    09:00 +22°C° 0 mm 1 mps 768 mmHg 49%
    10:00 +23°C° 0 mm 1 mps 768 mmHg 46%
    11:00 +24°C° 0 mm 1 mps 768 mmHg 44%
    12:00 +25°C° 0 mm 1 mps 768 mmHg 42%
    13:00 +25°C° 0 mm 1 mps 767 mmHg 42%
    14:00 +26°C° 0 mm 1 mps 767 mmHg 43%
    15:00 +26°C° 0 mm 2 mps 767 mmHg 43%
    16:00 +25°C° 0 mm 2 mps 767 mmHg 48%
    17:00 +24°C° 0 mm 2 mps 767 mmHg 53%
    18:00 +21°C° 0 mm 2 mps 767 mmHg 58%
    19:00 +20°C° 0 mm 3 mps 767 mmHg 60%
    20:00 +19°C° 0 mm 3 mps 767 mmHg 61%
    21:00 +18°C° 0 mm 3 mps 767 mmHg 63%
    22:00 +18°C° 0 mm 3 mps 767 mmHg 64%
    23:00 +17°C° 0 mm 3 mps 766 mmHg 65%

    24 August, Saturday

    Time Temperature Precipitation Wind Pressure Humidity
    00:00 +17°C° 0 mm 3 mps 766 mmHg 66%
    01:00 +17°C° 0 mm 3 mps 766 mmHg 70%
    02:00 +16°C° 0 mm 3 mps 766 mmHg 73%
    03:00 +16°C° 0 mm 3 mps 766 mmHg 77%
    04:00 +16°C° 0 mm 3 mps 765 mmHg 78%
    05:00 +16°C° 0 mm 3 mps 765 mmHg 79%
    06:00 +17°C° 0 mm 3 mps 765 mmHg 81%
    07:00 +19°C° 0 mm 3 mps 765 mmHg 74%
    08:00 +21°C° 0 mm 3 mps 765 mmHg 67%
    09:00 +24°C° 0 mm 3 mps 765 mmHg 60%
    10:00 +25°C° 0 mm 3 mps 765 mmHg 55%
    11:00 +27°C° 0 mm 3 mps 765 mmHg 51%
    12:00 +28°C° 0 mm 3 mps 765 mmHg 46%
    13:00 +28°C° 0 mm 3 mps 764 mmHg 45%
    14:00 +29°C° 0 mm 3 mps 764 mmHg 45%
    15:00 +29°C° 0 mm 3 mps 763 mmHg 44%
    16:00 +28°C° 0 mm 3 mps 763 mmHg 49%
    17:00 +26°C° 0 mm 3 mps 763 mmHg 53%
    18:00 +25°C° 0 mm 3 mps 763 mmHg 57%
    19:00 +24°C° 0 mm 3 mps 763 mmHg 60%
    20:00 +22°C° 0 mm 3 mps 763 mmHg 63%
    21:00 +21°C° 0 mm 3 mps 763 mmHg 66%
    22:00 +20°C° 0 mm 3 mps 763 mmHg 69%
    23:00 +20°C° 0 mm 3 mps 763 mmHg 72%

    25 August, Sunday

    Time Temperature Precipitation Wind Pressure Humidity
    00:00 +19°C° 0 mm 3 mps 763 mmHg 74%
    01:00 +18°C° 0 mm 3 mps 762 mmHg 76%
    02:00 +18°C° 0 mm 2 mps 762 mmHg 78%
    03:00 +18°C° 0 mm 2 mps 762 mmHg 80%
    04:00 +18°C° 0 mm 2 mps 762 mmHg 78%
    05:00 +18°C° 0 mm 2 mps 762 mmHg 77%
    06:00 +18°C° 0 mm 2 mps 762 mmHg 76%
    07:00 +20°C° 0 mm 2 mps 762 mmHg 69%
    08:00 +23°C° 0 mm 2 mps 762 mmHg 61%
    09:00 +25°C° 0 mm 2 mps 762 mmHg 54%
    10:00 +27°C° 0 mm 2 mps 762 mmHg 51%
    11:00 +28°C° 0 mm 1 mps 762 mmHg 48%
    12:00 +29°C° 0 mm 1 mps 762 mmHg 45%
    13:00 +30°C° 0 mm 1 mps 762 mmHg 43%
    14:00 +30°C° 0 mm 2 mps 762 mmHg 41%
    15:00 +31°C° 0 mm 2 mps 761 mmHg 40%
    16:00 +29°C° 0 mm 2 mps 761 mmHg 45%
    17:00 +28°C° 0 mm 2 mps 761 mmHg 49%
    18:00 +27°C° 0 mm 2 mps 761 mmHg 54%
    19:00 +26°C° 0 mm 2 mps 761 mmHg 56%
    20:00 +25°C° 0 mm 3 mps 762 mmHg 57%
    21:00 +24°C° 0 mm 3 mps 762 mmHg 59%
    22:00 +22°C° 0 mm 3 mps 762 mmHg 59%
    23:00 +22°C° 0 mm 3 mps 762 mmHg 60%

    26 August, Monday

    Time Temperature Precipitation Wind Pressure Humidity
    00:00 +21°C° 0 mm 3 mps 761 mmHg 60%
    01:00 +21°C° 0 mm 3 mps 761 mmHg 63%
    02:00 +20°C° 0 mm 3 mps 761 mmHg 66%
    03:00 +20°C° 0 mm 3 mps 761 mmHg 69%
    04:00 +19°C° 0 mm 3 mps 762 mmHg 72%
    05:00 +19°C° 0 mm 4 mps 762 mmHg 76%
    06:00 +19°C° 0 mm 4 mps 762 mmHg 79%
    07:00 +20°C° 0 mm 4 mps 762 mmHg 75%
    08:00 +22°C° 0 mm 4 mps 763 mmHg 71%
    09:00 +25°C° 0 mm 4 mps 763 mmHg 67%
    10:00 +25°C° 0 mm 4 mps 763 mmHg 65%
    11:00 +26°C° 0 mm 4 mps 763 mmHg 63%
    12:00 +26°C° 0 mm 4 mps 764 mmHg 61%
    13:00 +26°C° 0 mm 4 mps 764 mmHg 61%
    14:00 +26°C° 0 mm 4 mps 764 mmHg 61%
    15:00 +25°C° 0 mm 3 mps 764 mmHg 60%
    16:00 +24°C° 0 mm 3 mps 764 mmHg 65%
    17:00 +22°C° 0 mm 3 mps 764 mmHg 69%
    18:00 +21°C° 0 mm 2 mps 764 mmHg 73%
    19:00 +20°C° 0 mm 2 mps 765 mmHg 75%
    20:00 +19°C° 0 mm 2 mps 765 mmHg 77%
    21:00 +18°C° 0 mm 2 mps 765 mmHg 79%
    22:00 +19°C° 0 mm 1 mps 765 mmHg 80%
    23:00 +19°C° 0 mm 1 mps 765 mmHg 81%
    Show more